Location: Kott?ru
(16.6209°N, 80.6208°E)
Time: 05:45:38
(UTC+00:00)

Hubble Space Telescope - Pass Details

Date: 06 February 2023
Orbit: 527 x 530 km, 28.5° (Epoch: 27 March)

Event Time Altitude Azimuth Distance (km) Brightness Sun altitude
Rises 14:46:46 0° 234° (SW) 2,639 5.2 -31.4°
Reaches altitude 10° 14:49:03 10° 229° (SW) 1,751 4.0 -32.0°
Enters shadow 14:49:51 15° 225° (SW) 1,454 3.5 -32.2°
